Regional Weather Roundup
Issued by NWS

Home | Current Version | Previous Version | Graphics & Text | Print | Product List | Glossary Off
Versions: 1 2 3 4 5 6 7 8 9 10 11 12 13 14 15 16 17 18 19 20 21 22 23 24 25 26 27 28 29 30 31 32 33 34 35 36 37 38 39 40 41 42 43 44 45 46 47 48 49 50

529
ASUS43 KTOP 280308
RWRKS

WEATHER ROUNDUP FOR KANSAS
NATIONAL WEATHER SERVICE GOODLAND KS
1000 PM CDT SAT MAY 27 2017

NOTE:  "FAIR" INDICATES FEW OR NO CLOUDS BELOW 12,000 FEET WITH NO
SIGNIFICANT WEATHER AND/OR OBSTRUCTIONS TO VISIBILITY.

KSZ001>006-013>018-027>032-041>047-280400-
NORTHWEST KANSAS

CITY           SKY/WX    TMP DP  RH WIND       PRES   REMARKS
GOODLAND       PTCLDY    53  51  93 W5        30.11S
HAYS           LGT RAIN  65  57  75 N9        30.00R
HILL CITY      CLOUDY    63  56  78 N8        30.04R
RUSSELL        CLOUDY    65  57  75 NW14      29.97R
$$

KSZ061>065-074>080-084>089-280400-
SOUTHWEST KANSAS

CITY           SKY/WX    TMP DP  RH WIND       PRES   REMARKS
DODGE CITY     CLOUDY    66  55  67 N15G24    30.04R
ELKHART          N/A     51  41  69 MISG        N/A
GARDEN CITY    LGT RAIN  56  50  80 NW13      30.11R
GREAT BEND     CLOUDY    66  59  78 NW9       29.98R
LIBERAL        LGT RAIN  54  52  93 N28G33    30.11R
PRATT          CLOUDY    64  56  75 N12       29.95R
$$

KSZ066>073-081>083-090>101-280400-
SOUTHEAST KANSAS

CITY           SKY/WX    TMP DP  RH WIND       PRES   REMARKS
CHANUTE        CLOUDY    71  60  68 NE7       29.80R
COFFEYVILLE    CLOUDY    72  65  78 N12       29.78R
HUTCHINSON     CLOUDY    69  59  70 N13       29.89R
MEDICINE LODGE   N/A     70  59  68 N15       29.89R
NEWTON         CLEAR     67  62  84 N12       29.89R
PARSONS        CLOUDY    71  62  73 N9        29.80R
WICHITA INTL   CLEAR     71  62  73 N18G25    29.85R
WICHITA JABRA  CLEAR     69  62  78 N15       29.85R
WICHITA MCCONL CLEAR     71  61  70 N17G26    29.84R
WINFIELD       CLEAR     70  60  70 N12       29.81S
$$

KSZ007>012-019>026-033>040-048>060-102>105-280400-
NORTHEAST KANSAS

CITY           SKY/WX    TMP DP  RH WIND       PRES   REMARKS
CONCORDIA      CLEAR     63  60  90 NW5       29.93R
EMPORIA        MOCLDY    70  63  78 N12G24    29.84S
LAWRENCE       CLEAR     67  63  87 NW9       29.86S
MANHATTAN      PTCLDY    66  62  87 N5        29.90R
MARYSVILLE     PTCLDY    61  59  94 CALM      29.92R
OLATHE IND     PTCLDY    64  61  90 N10       29.84F
OLATHE EXE     CLEAR     66  63  90 N7        29.83F
SALINA         PTCLDY    68  62  81 N7        29.91R
TOPEKA BILLARD CLEAR     66  63  90 N3        29.87S
TOPEKA FORBES  PTCLDY    68  62  81 N8        29.87S
$$




USA.gov is the U.S. government's official web portal to all federal, state and local government web resources and services.